Regional Weather Roundup
Issued by NWS

Home | Current Version | Previous Version | Graphics & Text | Print | Product List | Glossary On
Versions: 1 2 3 4 5 6 7 8 9 10 11 12 13 14 15 16 17 18 19 20 21 22 23 24 25 26 27 28 29 30 31 32 33 34 35 36 37 38 39 40 41 42 43 44 45 46 47 48
000
ASUS43 KDMX 210007
RWRIA

WEATHER ROUNDUP FOR IOWA
NATIONAL WEATHER SERVICE DES MOINES IA
700 PM CDT WED AUG 20 2014

NOTE: "FAIR" INDICATES FEW OR NO CLOUDS BELOW 12,000 FEET WITH NO
SIGNIFICANT WEATHER AND/OR OBSTRUCTIONS TO VISIBILITY.

* - THESE STATIONS ARE NOT NWS STATIONS...THUS NOT UNDER NWS
QUALITY CONTROL.  THEY ALSO DO NOT REPORT WEATHER SUCH
AS PRECIPITATION OR FOG.

IAZ001>003-012>014-020>022-031>034-043>046-210100-
   NORTHWEST IOWA

CITY           SKY/WX    TMP DP  RH WIND       PRES   REMARKS
CARROLL *      SUNNY     81  75  83 S9        29.81F HX  86
CHEROKEE *     CLOUDY    77  74  91 S9        29.78F
DENISON *      SUNNY     82  75  78 SE10      29.78F HX  89
LE MARS *      SUNNY     79  73  83 CALM      29.78S HX  82
ORANGE CITY *  LGT RAIN  77  72  83 E5        29.80R
SHELDON *      MOSUNNY   72  70  94 SE7       29.80S
SIOUX CITY     CLOUDY    83  75  77 SE10      29.75S HX  90
6HR MIN TEMP:  73; 6HR MAX TEMP:  83; 6HR PCP:  0.04;

SPENCER        CLOUDY    73  69  87 E8        29.83S
6HR MIN TEMP:  73; 6HR MAX TEMP:  81; 6HR PCP:  0.02;

STORM LAKE *   SUNNY     77  77 100 S8        29.82S
$$

IAZ055>058-069>071-079>083-090>094-210100-
   SOUTHWEST IOWA

CITY           SKY/WX    TMP DP  RH WIND       PRES   REMARKS
ATLANTIC *     SUNNY     84  75  74 S8G15     29.81F HX  92
AUDUBON *      SUNNY     84  79  84 S8        29.83F HX  96
CLARINDA *     SUNNY     86  75  70 VRB7      29.82F HX  95
COUNCIL BLFS * SUNNY     84  77  79 SE14G21   29.78F HX  94
CRESTON *      SUNNY     82  75  78 SE12G17   29.86F HX  89
HARLAN  *      SUNNY     82  77  83 SE10      29.83F HX  91
LAMONI         SUNNY     84  75  74 SE8       29.86F HX  92
6HR MIN TEMP:  80; 6HR MAX TEMP:  85;

RED OAK *      SUNNY     86  75  70 SE12      29.81S HX  95
SHENANDOAH *   SUNNY     86  75  70 SE10G16   29.80S HX  95
$$

IAZ047>049-059>061-072>074-084-210100-
   CENTRAL IOWA

CITY           SKY/WX    TMP DP  RH WIND       PRES   REMARKS
AMES           CLOUDY    77  73  87 SE6       29.83F
6HR MIN TEMP:  70; 6HR MAX TEMP:  78;

ANKENY *       SUNNY     82  73  74 SE5       29.84S HX  88
CHARITON *     SUNNY     82  75  78 S7        29.87S HX  89
DES MOINES     PTSUNNY   83  73  72 S12       29.82F HX  89
6HR MIN TEMP:  74; 6HR MAX TEMP:  84; 6HR PCP: TRACE;

GRINNELL*      CLOUDY    79  72  78 SE7       29.87F HX  82
KNOXVILLE *    SUNNY     82  73  74 S7        29.84F HX  88
MARSHALLTOWN   CLOUDY    75  71  87 E6        29.86S
6HR MIN TEMP:  70; 6HR MAX TEMP:  75; 6HR PCP:  0.01;

PELLA *        PTSUNNY   81  73  78 S7        29.86F HX  85
PERRY *          N/A     79  73  83 SE6       29.83F HX  82
$$

IAZ004>006-015-016-023>025-035-036-210100-
   NORTH CENTRAL IOWA

CITY           SKY/WX    TMP DP  RH WIND       PRES   REMARKS
ALGONA *       SUNNY     73  70  88 CALM      29.85R
CLARION *      SUNNY     73  68  83 SE9       29.83F
ESTHERVILLE    CLOUDY    72  68  87 S5        29.85R
6HR MIN TEMP:  71; 6HR MAX TEMP:  77;

FORT DODGE *   CLOUDY    73  70  88 SE6       29.83F
MASON CITY     CLOUDY    73  68  84 SE8       29.87F
6HR MIN TEMP:  73; 6HR MAX TEMP:  79;

FOREST CITY *  SUNNY     73  68  83 SE7       29.85F
IOWA FALLS *     N/A     73  68  83 E7        29.86F
$$

IAZ007>011-017>019-026>030-037>042-050>054-066-210100-
   NORTHEAST IOWA

CITY           SKY/WX    TMP DP  RH WIND       PRES   REMARKS
CEDAR RAPIDS   CLOUDY    74  70  87 SE5       29.88F
6HR MIN TEMP:  73; 6HR MAX TEMP:  75; 6HR PCP: TRACE;

CHARLES CITY * PTSUNNY   73  68  83 SE6       29.89S
CLINTON *      CLOUDY    73  66  78 NW3       29.94S
DECORAH *      MOSUNNY   77  70  78 CALM      29.88S
DUBUQUE        CLOUDY    73  69  87 SW10      29.92R
6HR MIN TEMP:  73; 6HR MAX TEMP:  83;

MONTICELLO *   PTCLDY    72  72 100 CALM      29.90F
OELWEIN *      PTSUNNY   72  70  94 CALM      29.91R
WATERLOO       CLOUDY    72  68  87 E6        29.88F
6HR MIN TEMP:  72; 6HR MAX TEMP:  77; 6HR PCP: TRACE;

$$

IAZ064-065-067-068-078-210100-
   EAST CENTRAL IOWA

CITY           SKY/WX    TMP DP  RH WIND       PRES   REMARKS
DAVENPORT      CLOUDY    75  68  78 SW12      29.90F
6HR MIN TEMP:  75; 6HR MAX TEMP:  79; 6HR PCP: TRACE;

IOWA CITY      CLOUDY    76  71  85 S5        29.90S
6HR MIN TEMP:  73; 6HR MAX TEMP:  77; 6HR PCP: TRACE;

MT. PLEASANT * CLOUDY    81  72  74 SE3       29.89F HX  84
MUSCATINE *    CLEAR     77  72  83 SE3       29.89F
QUAD CITIES    MOCLDY    76  70  82 SW5       29.89S
6HR MIN TEMP:  75; 6HR MAX TEMP:  79; 6HR PCP: TRACE;

$$

IAZ062-063-075>077-085>089-095>099-210100-
   SOUTHEAST IOWA

CITY           SKY/WX    TMP DP  RH WIND       PRES   REMARKS
BURLINGTON     MOCLDY    79  73  82 S5        29.89F HX  82
6HR MIN TEMP:  70; 6HR MAX TEMP:  82; 6HR PCP: TRACE;

FAIRFIELD *    SUNNY     81  73  78 SE6       29.88F HX  85
FORT MADISON * CLEAR     82  75  78 CALM      29.90F HX  89
KEOKUK *       CLEAR     82  77  83 CALM      29.88F HX  91
OSKALOOSA *      N/A     79  73  82 S7        29.87F HX  83
CENTERVILLE *  SUNNY     82  75  78 SE6       29.89F HX  89
OTTUMWA        PTSUNNY   81  73  76 S6        29.87F HX  86
6HR MIN TEMP:  73; 6HR MAX TEMP:  82;

WASHINGTON *   CLEAR     77  73  88 S7        29.88F
$$

ABBREVIATIONS USED IN REMARKS
   TC - TEMPERATURES IN CELSIUS
  WCI - WIND CHILL INDEX
   HX - HEAT INDEX
  VSB - VISIBILITY
$$




USA.gov is the U.S. government's official web portal to all federal, state and local government web resources and services.